Regional Weather Roundup
Issued by NWS

Home | Current Version | Previous Version | Text Only | Print | Product List | Glossary On
Versions: 1 2 3 4 5 6 7 8 9 10 11 12 13 14 15 16 17 18 19 20 21 22 23 24 25 26 27 28 29 30 31 32 33 34 35 36 37 38 39 40 41 42 43 44 45 46 47 48 49 50
000
ASUS43 KMPX 182001
RWRMN
WEATHER ROUNDUP FOR MINNESOTA
NATIONAL WEATHER SERVICE TWIN CITIES/CHANHASSEN MN
300 PM CDT FRI APR 18 2014


NOTE: "FAIR" INDICATES FEW OR NO CLOUDS BELOW 12,000 FEET WITH NO
SIGNIFICANT WEATHER AND/OR OBSTRUCTIONS TO VISIBILITY. N/A MEANS
CURRENT SKY AND/OR WEATHER CONDITIONS ARE NOT AVAILABLE.

MNZ060>063-068>070-182100-
   Twin Cities Metro

CITY           SKY/WX    TMP DP  RH WIND       PRES   REMARKS
TWIN CITIES    PTSUNNY   51  29  42 E12       30.32F
ST PAUL        SUNNY     51  28  41 SE10      30.33F
CRYSTAL        MOSUNNY   48  25  40 E8        30.30F
EDEN PRAIRIE   MOSUNNY   52  26  36 SE9G18    30.30F
LAKEVILLE      MOSUNNY   48  30  49 SE12      30.31F
SOUTH ST PAUL  SUNNY     52  27  37 SE9       30.32F
LAKE ELMO      FAIR      52  28  40 E9        30.34F
$$
MNZ001>005-007-008-013>017-022>024-027-028-182100-
   Northwest Minnesota

CITY           SKY/WX    TMP DP  RH WIND       PRES   REMARKS
BEMIDJI        CLOUDY    47  19  33 SE18G24   30.24F
HALLOCK        CLOUDY    50  25  37 SE18G28   30.16F
ROSEAU         MOSUNNY   50  12  22 SE15G23   30.23F
WARROAD        MOSUNNY   45  25  45 E15       30.25F
THIEF RVR FALL PTSUNNY   50  25  37 SE22      30.18F
CROOKSTON      CLOUDY    48  25  40 SE21      30.17F
FOSSTON        PTSUNNY   48  21  34 SE16G22   30.19F
DETROIT LAKES  MOSUNNY   45  28  53 SE22G31   30.18F
MOORHEAD       PTSUNNY   52  27  37 SE20G31   30.15F
PARK RAPIDS    CLOUDY    47  21  35 SE18      30.22F
$$
MNZ006-009>011-018-025>026-182100-
   North Central Minnesota

CITY           SKY/WX    TMP DP  RH WIND       PRES   REMARKS
BAUDETTE       MOSUNNY   46  14  27 SE14G21   30.27F
FLAG ISLAND    PTSUNNY   39  21  48 SE6       30.28F
INTL FALLS     SUNNY     44  12  27 SE12G17   30.31F
WASKISH        SUNNY     50  18  27 E10       30.26F
BIG FORK       SUNNY     48  16  27 E9        30.29F
LONGVILLE      PTSUNNY   50  19  29 SE7       30.28F
GRAND RAPIDS   SUNNY     46  16  29 SE12G18   30.30F
CRANE LAKE     SUNNY     46  12  25 CALM      30.36F
ORR            SUNNY     45   1  16 SE6       30.31F
COOK           SUNNY     45  14  29 E7        30.33F
$$
MNZ012-019>021-037-182100-
   Northeast Minnesota

CITY           SKY/WX    TMP DP  RH WIND       PRES   REMARKS
DULUTH         SUNNY     36  19  50 SE13      30.36F
ELY            SUNNY     41  16  36 E5        30.34F
HIBBING        SUNNY     49  12  22 VRB7      30.31F
EVELETH        SUNNY     45   9  23 E7        30.33F
DULUTH HARBOR  SUNNY     34  28  80 CALM      30.41F
TWO HARBORS    SUNNY     37  21  52 SE9       30.37F
SILVER BAY     SUNNY     36  27  69 NE8       30.37F
GRAND MARAIS     N/A     35  26  69 SW5       30.44R WCI  31
G MARAIS ARPRT PTSUNNY   36  19  51 S8        30.38S
$$
MNZ029>031-032-039>041-046>048-054>057-064-182100-
   West Central Minnesota

CITY           SKY/WX    TMP DP  RH WIND       PRES   REMARKS
FERGUS FALLS   PTSUNNY   46  19  34 SE24G33   30.14F
WHEATON        PTSUNNY   50  34  53 SE31G43   30.13F
MORRIS         CLOUDY    46  30  53 SE28G35   30.15F
ALEXANDRIA     CLOUDY    41  26  55 SE22G28   30.22F
ELBOW LAKE     CLOUDY    43  28  53 E22G30    30.16F
WADENA         MOSUNNY   45  25  45 SE21      30.22F
GLENWOOD       CLOUDY    43  30  61 E22       30.23F
APPLETON       MOSUNNY   50  34  53 SE25G33   30.16F
BENSON         PTSUNNY   46  32  57 SE22G32   30.18F
ORTONVILLE     MOSUNNY   46  36  66 SE23G33   30.11F
MADISON        MOSUNNY   52  39  62 SE29      30.14F
WILLMAR        FAIR      45  32  61 E22G29    30.23F
$$
MNZ033>034-036-042>043-049>051-058-059-182100-
   Central Minnesota

CITY           SKY/WX    TMP DP  RH WIND       PRES   REMARKS
ST CLOUD       PTSUNNY   42  27  55 SE10      30.30F
SAUK CENTRE    CLOUDY    42  26  54 E17       30.25F
PAYNESVILLE    PTSUNNY   43  30  60 SE14G20   30.26F
AITKIN         MOSUNNY   48  21  34 SE10G17   30.30F
PINE RIVER     PTSUNNY   46  25  42 SE14G20   30.30F
BRAINERD       CLOUDY    49  24  37 E7G17     30.30F
STAPLES        MOSUNNY   45  23  42 SE12G21   30.25F
LONG PRAIRIE   FAIR      41  27  56 E12G23    30.26F
LITTLE FALLS   MOSUNNY   43  27  52 SE14G20   30.29F
LITCHFIELD     MOSUNNY   45  34  65 E13       30.27F
BUFFALO        MOSUNNY   46  27  47 E9        30.31F
MAPLE LAKE     MOSUNNY   46  29  51 E7        30.31F
$$
MNZ037-044-045-052-053-182100-
   East Central Minnesota

CITY           SKY/WX    TMP DP  RH WIND       PRES   REMARKS
PRINCETON      MOSUNNY   46  27  46 SE9       30.33F
MORA           MOSUNNY   45  27  49 E8        30.35F
CAMBRIDGE      MOSUNNY   46  28  49 E9        30.32F
RUSH CITY      MOSUNNY   45  24  44 SE5       30.34F
MOOSE LAKE     CLOUDY    46  19  34 SE3       30.33S
HINCKLEY       CLOUDY    43  23  45 E10       30.34F
CLOQUET        SUNNY     39  14  35 E8        30.35F
MCGREGOR       CLOUDY    46  21  36 SE12G17   30.32F
$$
MNZ071>073-080-081-089-090-097-098-182100-
   Southwest Minnesota

CITY           SKY/WX    TMP DP  RH WIND       PRES   REMARKS
MONTEVIDEO     MOSUNNY   48  37  66 SE24G31   30.18F
GRANITE FALLS  SUNNY     47  34  61 E17G28    30.19F
CANBY          MOSUNNY   51  41  68 SE20G28   30.12F
MARSHALL       SUNNY     57  37  47 SE26G36   30.13F
REDWOOD FALLS  MOSUNNY   52  36  54 SE25G31   30.20F
OLIVIA         MOSUNNY   46  34  61 E16       30.21F
PIPESTONE      MOSUNNY   59  34  38 S24G32    30.09F
WINDOM         SUNNY     57  34  41 SE21G28   30.19F
WORTHINGTON    SUNNY     57  30  35 S22       30.17F
JACKSON        SUNNY     59  32  36 SE18G29   30.19F
TRACY          SUNNY     57  38  49 SE24      30.16F
SLAYTON        SUNNY     56  37  48 SE30      30.14F
$$
MNZ065>067-074>077-082>085-091>093-182100-
   South Central Minnesota

CITY           SKY/WX    TMP DP  RH WIND       PRES   REMARKS
MANKATO        MOSUNNY   54  32  43 SE15      30.28F
NEW ULM        MOSUNNY   54  36  50 SE14G21   30.25F
ST JAMES       MOSUNNY   57  37  47 E18G24    30.24F
FAIRMONT       SUNNY     55  32  41 SE17G24   30.25F
GLENCOE        MOSUNNY   50  28  43 E16       30.28F
FARIBAULT      MOSUNNY   54  28  37 E10       30.31F
OWATONNA       MOSUNNY   52  34  50 SE8       30.30F
WASECA         PTSUNNY   54  36  50 E13       30.30F
ALBERT LEA     SUNNY     54  30  40 SE8       30.28F
$$
MNZ078>079-086>088-094>096-182100-
   Southeast Minnesota

CITY           SKY/WX    TMP DP  RH WIND       PRES   REMARKS
ROCHESTER      SUNNY     51  29  42 SE8       30.32F
RED WING       SUNNY     52  25  35 SE8       30.34S
STANTON        MOSUNNY   51  26  38 E10       30.31F
DODGE CENTER   MOSUNNY   54  28  37 E7        30.31F
WINONA         MOSUNNY   54  25  32 E6        30.35F
AUSTIN         SUNNY     52  28  40 SE8       30.30F
PRESTON        SUNNY     52  28  39 E8        30.33F
$$
ABBREVIATIONS USED IN REMARKS
   TC - TEMPERATURES IN CELSIUS
  WCI - WIND CHILL INDEX
   HX - HEAT INDEX
  VSB - VISIBILITY
$$


USA.gov is the U.S. government's official web portal to all federal, state and local government web resources and services.